Location: L�Ave Maria
(50.7161°N, 1.5911°E)
Time: 00:08:31
(UTC+00:00)

Cosmos 1821 Rocket - Pass Details

Date: 10 July 2020
Orbit: 945 x 1004 km, 82.9° (Epoch: 03 August)

Event Time Altitude Azimuth Distance (km) Brightness Sun altitude
Exits shadow 23:26:31 25° 157° (SSE) 1,810 4.8 -16.9°
Maximum altitude 23:29:54 53° 92° (E) 1,154 4.3 -16.9°
Drops below altitude 10° 23:35:48 10° 17° (NNE) 2,678 7.4 -17.0°
Sets 23:38:21 0° 13° (NNE) 3,628 8.4 -17.1°
